[[{"header":{"parameterUnit":"m.s-1","parameterCategory":2,"la1":30.2991,"la2":30.254,"lo1":-89.0895,"lo2":-89.0444,"dy":0.0017,"dx":0.0017,"nx":28,"ny":28,"refTime":"2023-09-07T21:00:00:Z","depth":"0","parameterNumber":2,"parameterNumberName":"U-component_of_CURRENTS"},"data":[0,0,0,0,0,0,0,0,0,0,0,0,0,0,0,0,0,0,0,0,0,0,0,0,0,0,0,0,0,0,0,0,0,0,0,0,0,0,0,0,0,0,0,0,0,0,0,0,0,0,0,0,0,0,0,0,0,0,0.3641,0.3641,0,0.3669,0.3669,0.3669,0.3654,0.3654,0.3654,0.3653,0.3652,0.3652,0.3652,0,0,0,0,0,0,0,0,0,0,0,0,0,0.3664,0.3662,0.3641,0.3641,0.3642,0.3669,0.3669,0.3669,0.3654,0.3654,0.3653,0.3653,0.3652,0.3652,0.3652,0,0,0,0,0,0,0,0,0,0,0,0,0,0.3664,0.3662,0.364,0.3642,0.3643,0.3669,0.3669,0.3669,0.3654,0.3654,0.3653,0.3653,0.3652,0.3652,0.3652,0.3664,0,0,0.3654,0.3654,0,0,0,0,0,0,0,0,0.3664,0.3662,0.3641,0.3642,0.3643,0.3662,0.3677,0.3667,0.3654,0.3645,0.3653,0.3653,0.3656,0.3656,0.3656,0.3664,0.3664,0.3654,0.3654,0.3654,0.3654,0,0,0,0,0,0,0,0.3664,0.3662,0.3647,0.3642,0.3643,0.3672,0.367,0.3675,0.3648,0.3645,0.3646,0.3657,0.3656,0.3655,0.3656,0.3664,0.3654,0.3654,0.3654,0.3654,0.3726,0.3728,0,0,0,0,0,0,0.3666,0.3661,0.3646,0.3648,0.3658,0.3672,0.367,0.3652,0.3649,0.3649,0.3657,0.3656,0.3655,0.3655,0.3655,0.3719,0.3654,0.3654,0.3654,0.3725,0.3727,0.3728,0,0,0,0,0,0,0.3666,0.3663,0.3645,0.3661,0.3662,0.3672,0.3653,0.3653,0.366,0.3659,0.3658,0.3665,0.3655,0.3655,0.3672,0.3717,0.3654,0.3655,0.3723,0.3725,0.3728,0.3815,0,0,0,0,0,0,0.3665,0.3662,0.3647,0.366,0.3661,0.3667,0.3654,0.3654,0.3669,0.3668,0.3665,0.3664,0.3654,0.3672,0.3673,0.3717,0.3655,0.372,0.3724,0.3727,0.381,0.382,0.3829,0,0,0,0,0,0.3666,0.3642,0.3645,0.3644,0.364,0.3669,0.3671,0.3675,0.367,0.3678,0.3679,0.3664,0.3693,0.3673,0.3674,0.3719,0.3719,0.3723,0.3727,0.3805,0.3818,0.3828,0,0,0,0,0,0,0.3627,0.3639,0.3643,0.3618,0.365,0.3668,0.3672,0.3683,0.369,0.3688,0.368,0.368,0.3717,0.3702,0.368,0.3749,0.3706,0.3711,0.3766,0.3778,0.3787,0.3816,0.3655,0,0,0,0,0,0.3618,0.361,0.3636,0.362,0.3636,0.3659,0.367,0.3682,0.3695,0.3697,0.3698,0.3706,0.3733,0.374,0.3751,0.3782,0.3795,0.3813,0.3822,0.383,0.3855,0.3916,0.3934,0.3741,0.3741,0.3741,0,0,0.3603,0.3607,0.3603,0.3615,0.3634,0.367,0.3662,0.3688,0.3725,0.3697,0.3731,0.3738,0.3749,0.379,0.3806,0.3782,0.389,0.3835,0.3842,0.3862,0.3922,0.3941,0.3958,0.3744,0.3743,0.3743,0,0,0.3588,0.3572,0.3577,0.361,0.3651,0.3673,0.3687,0.3719,0.3738,0.3774,0.3778,0.3816,0.3826,0.3863,0.3879,0.3947,0.394,0.3945,0.4016,0.4076,0.4092,0.4107,0.4142,0.4159,0.3948,0.3948,0.3948,0,0.3573,0.3574,0.3587,0.3617,0.365,0.368,0.3719,0.375,0.3785,0.3821,0.3791,0.3874,0.3871,0.3967,0.3989,0.3973,0.3993,0.3972,0.409,0.4105,0.4119,0.415,0.4169,0.3953,0.3952,0.3952,0.3951,0,0.3583,0.3593,0.3602,0.365,0.3689,0.3722,0.3784,0.3821,0.3843,0.3884,0.397,0.3982,0.4037,0.4046,0.4035,0.4148,0.4125,0.4097,0.4064,0.4144,0.4171,0.4189,0.3959,0.3958,0.3956,0.3955,0,0,0.3531,0.3596,0.3602,0.364,0.3712,0.3747,0.3822,0.3906,0.3964,0.4013,0.409,0.4159,0.418,0.4202,0.4212,0.4262,0.4364,0.4224,0.4225,0.4263,0.4487,0.439,0.4399,0.4358,0.4361,0.4364,0.4464,0,0.354,0.3592,0.3632,0.3704,0.3741,0.381,0.3879,0.3966,0.4022,0.4097,0.4171,0.4233,0.4239,0.426,0.4331,0.434,0.4415,0.4339,0.44,0.4402,0.431,0.4418,0.4184,0.4247,0.4481,0.4484,0.4486,0,0.354,0.358,0.3637,0.3739,0.3765,0.3814,0.3935,0.4004,0.4132,0.4174,0.4281,0.4325,0.4435,0.4399,0.4535,0.4484,0.4515,0.4524,0.4527,0.4423,0.4338,0.4206,0.4269,0.4188,0.4512,0.451,0.4508,0,0.3498,0.3586,0.3628,0.3664,0.3779,0.3827,0.3895,0.4022,0.4101,0.422,0.4289,0.4416,0.4479,0.4551,0.4614,0.4569,0.474,0.4667,0.4631,0.4623,0.443,0.4398,0.4426,0.4797,0.4797,0.4797,0.4797,0,0.3484,0.3524,0.3607,0.3635,0.3706,0.38,0.389,0.3975,0.4111,0.4205,0.433,0.4421,0.4523,0.4638,0.4662,0.4717,0.4796,0.4679,0.466,0.445,0.4421,0.4343,0.43,0.4801,0.48,0.4799,0.4798,0,0.343,0.348,0.3536,0.3645,0.3679,0.3728,0.3873,0.3945,0.4085,0.4208,0.4254,0.4448,0.4561,0.4687,0.4784,0.4772,0.4676,0.483,0.4569,0.4516,0.4314,0.4283,0.4139,0.4027,0.475,0.4749,0.4747,0,0.34,0.3418,0.3517,0.3544,0.3587,0.3672,0.3734,0.3891,0.3964,0.421,0.4257,0.445,0.455,0.4701,0.4672,0.4719,0.4648,0.4552,0.442,0.4308,0.4262,0.4105,0.401,0.4198,0.4192,0.4188,0.4184,0,0.3352,0.3381,0.3433,0.3476,0.3527,0.3605,0.3698,0.3754,0.3936,0.4044,0.4172,0.4281,0.444,0.4369,0.4482,0.4471,0.4291,0.4453,0.4412,0.3909,0.3666,0.3544,0.4126,0.4142,0.4146,0.4149,0.4152,0.4153,0.3307,0.3319,0.3366,0.3396,0.3456,0.3503,0.3504,0.3608,0.3691,0.3788,0.3958,0.4015,0.4093,0.4165,0.4158,0.399,0.3998,0.3854,0.3853,0.3726,0.353,0.402,0.3965,0.3968,0.397,0.3972,0.3974,0,0.3224,0.3245,0.3283,0.3301,0.3303,0.3382,0.3446,0.3408,0.3401,0.3531,0.3577,0.3601,0.3591,0.3663,0.3572,0.343,0.3265,0.336,0.3098,0.3057,0.3562,0.3451,0.3189,0.3189,0.3189,0.319,0.319,0.319,0.3188,0.317,0.3176,0.3121,0.3135,0.308,0.3074,0.3044,0.308,0.3036,0.3021,0.3097,0.3273,0.3276,0.3151,0.3073,0.2871,0.2684,0.2771,0.3149,0.3195,0.3239,0.3128,0.2803,0.2802,0.2091,0.2086,0.2082]},{"header":{"parameterUnit":"m.s-1","parameterCategory":2,"la1":30.2991,"la2":30.254,"lo1":-89.0895,"lo2":-89.0444,"dy":0.0017,"dx":0.0017,"nx":28,"ny":28,"refTime":"2023-09-07T21:00:00:Z","depth":"0","parameterNumber":3,"parameterNumberName":"V-component_of_CURRENTS"},"data":[0,0,0,0,0,0,0,0,0,0,0,0,0,0,0,0,0,0,0,0,0,0,0,0,0,0,0,0,0,0,0,0,0,0,0,0,0,0,0,0,0,0,0,0,0,0,0,0,0,0,0,0,0,0,0,0,0,0,-0.0081,-0.0081,0,-0.0123,-0.0124,-0.0124,-0.015,-0.015,-0.015,-0.015,-0.0223,-0.0225,-0.0227,0,0,0,0,0,0,0,0,0,0,0,0,0,-0.0071,-0.0071,-0.0081,-0.0081,-0.0082,-0.0123,-0.0124,-0.0124,-0.015,-0.015,-0.015,-0.015,-0.0222,-0.0225,-0.0227,0,0,0,0,0,0,0,0,0,0,0,0,0,-0.0092,-0.0071,-0.0081,-0.0098,-0.01,-0.0123,-0.0124,-0.0125,-0.015,-0.015,-0.015,-0.015,-0.0221,-0.0224,-0.0227,-0.0245,0,0,-0.0236,-0.0237,0,0,0,0,0,0,0,0,-0.009,-0.0092,-0.0095,-0.0097,-0.0099,-0.013,-0.0147,-0.0166,-0.015,-0.0133,-0.015,-0.015,-0.0194,-0.0199,-0.0209,-0.0249,-0.0252,-0.0236,-0.0238,-0.0239,-0.024,0,0,0,0,0,0,0,-0.0089,-0.0091,-0.0099,-0.0096,-0.0098,-0.012,-0.0123,-0.0151,-0.0165,-0.0135,-0.0136,-0.0138,-0.0195,-0.0206,-0.0211,-0.0253,-0.0236,-0.0239,-0.0241,-0.0242,-0.0347,-0.0348,0,0,0,0,0,0,-0.0078,-0.0089,-0.0098,-0.01,-0.0093,-0.012,-0.0123,-0.0121,-0.0164,-0.0169,-0.0138,-0.0139,-0.0201,-0.0207,-0.0213,-0.0254,-0.0239,-0.0242,-0.0244,-0.0346,-0.0348,-0.0349,0,0,0,0,0,0,-0.0077,-0.0078,-0.0096,-0.0095,-0.0098,-0.012,-0.0118,-0.0122,-0.0129,-0.0166,-0.0173,-0.014,-0.0201,-0.0209,-0.0236,-0.0256,-0.0243,-0.0246,-0.0345,-0.0347,-0.0348,-0.0324,0,0,0,0,0,0,-0.0077,-0.0078,-0.0069,-0.0094,-0.0098,-0.0099,-0.0118,-0.0123,-0.013,-0.0132,-0.017,-0.0177,-0.0202,-0.0231,-0.0239,-0.026,-0.0248,-0.0344,-0.0346,-0.0348,-0.0324,-0.0325,-0.0326,0,0,0,0,0,-0.0076,-0.0058,-0.0068,-0.0069,-0.0087,-0.0099,-0.0103,-0.012,-0.013,-0.0128,-0.0158,-0.0175,-0.025,-0.0234,-0.0242,-0.0265,-0.0343,-0.0345,-0.0348,-0.0323,-0.0325,-0.0326,0,0,0,0,0,0,-0.0038,-0.0059,-0.0071,-0.0058,-0.0075,-0.0102,-0.0098,-0.0116,-0.0138,-0.0141,-0.0179,-0.0188,-0.0224,-0.0246,-0.0228,-0.0304,-0.0304,-0.0308,-0.0282,-0.0284,-0.0285,-0.0255,-0.0251,0,0,0,0,0,-0.0029,-0.0026,-0.0051,-0.0038,-0.0045,-0.0073,-0.008,-0.0094,-0.0118,-0.0128,-0.0156,-0.0197,-0.0242,-0.0261,-0.0296,-0.0328,-0.0319,-0.0354,-0.0354,-0.0355,-0.0338,-0.0339,-0.0338,-0.0357,-0.0357,-0.0356,0,0,-0.0013,-0.0021,-0.002,-0.0031,-0.0046,-0.0047,-0.0077,-0.0082,-0.0089,-0.0133,-0.0147,-0.0196,-0.0251,-0.0292,-0.0311,-0.0311,-0.0346,-0.0358,-0.0358,-0.0341,-0.0341,-0.0339,-0.0337,-0.0358,-0.0358,-0.0358,0,0,0.0024,0.0015,0.0027,0.0016,-0.0,-0.0021,-0.002,-0.0049,-0.0067,-0.009,-0.0138,-0.0192,-0.024,-0.0294,-0.0328,-0.0355,-0.035,-0.0376,-0.0356,-0.0357,-0.0355,-0.0352,-0.0331,-0.0327,-0.0377,-0.0377,-0.0377,0,0.0047,0.0059,0.003,0.0041,0.0039,-0.0005,0.0006,-0.0021,-0.0055,-0.0074,-0.0086,-0.0185,-0.0242,-0.0307,-0.0331,-0.0357,-0.034,-0.0344,-0.0355,-0.0353,-0.035,-0.0329,-0.0325,-0.0376,-0.0376,-0.0376,-0.0376,0,0.0088,0.0098,0.0108,0.0102,0.0093,0.0099,0.0058,0.0042,0.0011,-0.0024,-0.0082,-0.0159,-0.0213,-0.0263,-0.0309,-0.0345,-0.0331,-0.0352,-0.0342,-0.0346,-0.0325,-0.0321,-0.0375,-0.0375,-0.0375,-0.0375,0,0,0.0144,0.0136,0.0143,0.0151,0.0127,0.0129,0.011,0.0078,0.0078,0.0012,0.0011,-0.0123,-0.0164,-0.0205,-0.0279,-0.0305,-0.0301,-0.032,-0.0321,-0.028,-0.0272,-0.0236,-0.0228,-0.0312,-0.0311,-0.0311,-0.0259,0,0.0188,0.0224,0.0201,0.0232,0.0245,0.02,0.0196,0.0158,0.0117,0.0106,-0.0001,-0.0035,-0.0142,-0.0164,-0.0213,-0.027,-0.0289,-0.0311,-0.0289,-0.0288,-0.0241,-0.0222,-0.0191,-0.0139,-0.0255,-0.0254,-0.0254,0,0.0241,0.0257,0.0296,0.0303,0.0305,0.0316,0.0307,0.0295,0.0243,0.0209,0.0143,0.0083,0.0003,-0.0063,-0.0154,-0.0153,-0.0209,-0.0256,-0.0255,-0.0222,-0.0245,-0.0158,-0.0127,-0.0282,-0.0247,-0.0248,-0.0248,0,0.0306,0.0326,0.0362,0.0366,0.0363,0.0375,0.0373,0.0332,0.0343,0.0288,0.0311,0.0192,0.0181,0.008,-0.0037,-0.0082,-0.009,-0.0163,-0.0183,-0.018,-0.0149,-0.0144,-0.0248,-0.0206,-0.0206,-0.0206,-0.0206,0,0.0368,0.0399,0.0403,0.0427,0.0482,0.045,0.0501,0.0469,0.0468,0.0518,0.0383,0.0417,0.0222,0.0186,0.0046,-0.0028,-0.0023,-0.0157,-0.0161,-0.0141,-0.0136,-0.0267,-0.0365,-0.0204,-0.0205,-0.0205,-0.0205,0,0.0434,0.0435,0.0486,0.0503,0.0518,0.0561,0.0608,0.0647,0.0624,0.0702,0.0702,0.0616,0.0569,0.0401,0.0266,0.0115,-0.0054,-0.0017,0.0032,0.0032,-0.0162,-0.0259,-0.0322,-0.0382,-0.0039,-0.0038,-0.0036,0,0.0471,0.0505,0.0557,0.0605,0.0621,0.068,0.0733,0.0725,0.0782,0.084,0.0904,0.0876,0.0895,0.071,0.0441,0.0247,0.0053,0.0112,-0.0,-0.0146,-0.0258,-0.033,-0.0383,0.0051,0.0053,0.0054,0.0055,0,0.0547,0.0569,0.0611,0.0708,0.078,0.0855,0.0935,0.1011,0.1042,0.1139,0.1259,0.1291,0.1114,0.0915,0.0616,0.0449,0.0015,0.0134,-0.0036,-0.0203,-0.0266,-0.0333,-0.0003,0.0067,0.0066,0.0065,0.0065,0.0064,0.0612,0.0663,0.0729,0.082,0.0909,0.1026,0.1116,0.1231,0.1381,0.1545,0.1552,0.1652,0.131,0.0912,0.065,0.0171,0.0131,-0.0015,-0.0118,-0.0174,-0.0248,0.0126,0.0197,0.0197,0.0196,0.0196,0.0196,0,0.069,0.0745,0.0836,0.0954,0.1066,0.1089,0.125,0.1363,0.1583,0.1758,0.1896,0.1831,0.1428,0.0963,0.0317,-0.0041,-0.019,-0.024,-0.0369,-0.0413,-0.0088,-0.0103,-0.0069,-0.0069,-0.0069,-0.0069,-0.0069,-0.0068,0.0737,0.0834,0.0875,0.1068,0.1155,0.1315,0.1416,0.1605,0.1761,0.201,0.2111,0.2151,0.1814,0.064,-0.0156,-0.0341,-0.0604,-0.0635,-0.0778,-0.0609,-0.0597,-0.0587,-0.0626,-0.0702,-0.0703,-0.1054,-0.1058,-0.1061]}],[{"header":{"parameterUnit":"m.s-1","parameterCategory":2,"la1":30.2991,"la2":30.254,"lo1":-89.0895,"lo2":-89.0444,"dy":0.0017,"dx":0.0017,"nx":28,"ny":28,"refTime":"2023-09-07T21:00:00:Z","depth":"2","parameterNumber":2,"parameterNumberName":"U-component_of_CURRENTS"},"data":[0,0,0,0,0,0,0,0,0,0,0,0,0,0,0,0,0,0,0,0,0,0,0,0,0,0,0,0,0,0,0,0,0,0,0,0,0,0,0,0,0,0,0,0,0,0,0,0,0,0,0,0,0,0,0,0,0,0,0.2605,0.2606,0,0.2662,0.2662,0.2663,0.2668,0.2668,0.2668,0.2667,0.2648,0.2648,0.2648,0,0,0,0,0,0,0,0,0,0,0,0,0,0.2535,0.2536,0.2605,0.2606,0.2607,0.2662,0.2662,0.2663,0.2668,0.2668,0.2668,0.2667,0.2649,0.2648,0.2648,0,0,0,0,0,0,0,0,0,0,0,0,0,0.2573,0.2536,0.2605,0.2619,0.2621,0.2662,0.2662,0.2663,0.2668,0.2668,0.2668,0.2667,0.2649,0.2648,0.2648,0.2654,0,0,0.2647,0.2647,0,0,0,0,0,0,0,0,0.257,0.2575,0.2616,0.2618,0.262,0.2661,0.2631,0.2657,0.2668,0.2647,0.2667,0.2667,0.2648,0.2648,0.2656,0.2653,0.2652,0.2647,0.2647,0.2646,0.2646,0,0,0,0,0,0,0,0.2568,0.2573,0.2624,0.2617,0.262,0.2634,0.2638,0.2636,0.2645,0.2649,0.265,0.2662,0.2648,0.2656,0.2655,0.2652,0.2647,0.2646,0.2646,0.2646,0.2701,0.2703,0,0,0,0,0,0,0.2567,0.257,0.2622,0.2626,0.2598,0.2636,0.2641,0.2645,0.2647,0.2648,0.2662,0.2662,0.2657,0.2655,0.2654,0.2709,0.2646,0.2646,0.2646,0.27,0.2702,0.2703,0,0,0,0,0,0,0.2565,0.257,0.262,0.2602,0.261,0.2638,0.2643,0.2647,0.2658,0.2659,0.2658,0.267,0.2656,0.2655,0.2667,0.2706,0.2646,0.2646,0.2698,0.27,0.2702,0.2788,0,0,0,0,0,0,0.2562,0.2569,0.2584,0.2602,0.2611,0.2639,0.2644,0.2648,0.2668,0.2668,0.2665,0.2663,0.2656,0.2668,0.2667,0.2705,0.2645,0.2695,0.2699,0.2702,0.2783,0.2794,0.2802,0,0,0,0,0,0.2559,0.2572,0.2584,0.2592,0.2627,0.2639,0.2644,0.2661,0.2668,0.267,0.2683,0.2663,0.2688,0.2669,0.2667,0.2706,0.2694,0.2698,0.2701,0.2779,0.2792,0.2802,0,0,0,0,0,0,0.2546,0.2575,0.2588,0.2609,0.2624,0.2641,0.2656,0.2665,0.2678,0.2692,0.2679,0.2678,0.271,0.2692,0.2671,0.2732,0.269,0.2694,0.275,0.2761,0.277,0.2789,0.2645,0,0,0,0,0,0.2553,0.2573,0.2593,0.2612,0.262,0.264,0.2654,0.267,0.2683,0.2689,0.2695,0.2707,0.2725,0.2728,0.2738,0.2761,0.2766,0.2786,0.2796,0.2804,0.2819,0.2877,0.2894,0.2716,0.2716,0.2716,0,0,0.2552,0.2575,0.2585,0.2612,0.2627,0.2648,0.2645,0.2674,0.2691,0.2685,0.2716,0.274,0.2739,0.2778,0.279,0.2766,0.2854,0.2809,0.2816,0.2827,0.2883,0.29,0.2916,0.2718,0.2718,0.2717,0,0,0.2558,0.2579,0.2597,0.2619,0.2658,0.2666,0.2673,0.2704,0.2713,0.2749,0.2763,0.2815,0.2818,0.2849,0.2856,0.292,0.2906,0.2919,0.2979,0.3035,0.3051,0.3064,0.3081,0.3096,0.292,0.292,0.292,0,0.2558,0.2584,0.2602,0.2634,0.2659,0.2672,0.2698,0.2707,0.2744,0.2781,0.2765,0.2857,0.2858,0.2924,0.2957,0.2944,0.2959,0.2935,0.3049,0.3063,0.3075,0.3089,0.3104,0.2925,0.2924,0.2924,0.2923,0,0.2584,0.2609,0.262,0.2662,0.2691,0.2712,0.2738,0.2764,0.2787,0.2833,0.2911,0.2931,0.2995,0.3004,0.3,0.3099,0.3075,0.3059,0.3022,0.3099,0.3108,0.3122,0.2931,0.293,0.2928,0.2927,0,0,0.2562,0.262,0.2628,0.2652,0.2712,0.2731,0.2769,0.2819,0.2864,0.292,0.2995,0.3056,0.3113,0.3126,0.3138,0.3185,0.3286,0.3168,0.3169,0.3188,0.3394,0.3298,0.3303,0.3296,0.33,0.3302,0.336,0,0.2567,0.2621,0.2655,0.27,0.2724,0.2766,0.2798,0.2869,0.2917,0.2994,0.3062,0.3138,0.3138,0.3185,0.3244,0.3281,0.333,0.3271,0.3315,0.3315,0.3224,0.3319,0.3052,0.3076,0.3374,0.3376,0.3378,0,0.2573,0.2618,0.2663,0.2723,0.2738,0.2772,0.2852,0.2889,0.3009,0.3052,0.3168,0.3232,0.3343,0.3311,0.3428,0.3393,0.3415,0.3424,0.3426,0.3319,0.3247,0.305,0.3089,0.3401,0.3399,0.3397,0.3396,0,0.2546,0.2609,0.2641,0.2669,0.2748,0.2781,0.2825,0.2937,0.2991,0.3115,0.3194,0.3318,0.339,0.3453,0.3515,0.3484,0.3618,0.3567,0.3493,0.3485,0.3257,0.3222,0.3652,0.3652,0.3652,0.3652,0.3652,0,0.2519,0.2547,0.2631,0.2657,0.2701,0.2784,0.2853,0.29,0.3033,0.3118,0.3242,0.3318,0.3436,0.3537,0.3559,0.3583,0.3662,0.3529,0.3511,0.3275,0.3244,0.3521,0.3505,0.3654,0.3654,0.3653,0.3653,0,0.2463,0.2512,0.2556,0.2653,0.2682,0.2724,0.2847,0.2908,0.3029,0.3138,0.3193,0.3364,0.3463,0.3565,0.3658,0.3627,0.3656,0.364,0.3341,0.3288,0.3463,0.3451,0.3548,0.3545,0.3543,0.3541,0.354,0,0.2433,0.2453,0.2545,0.257,0.2606,0.2689,0.2744,0.2875,0.2932,0.3141,0.3176,0.3359,0.341,0.3529,0.3527,0.3547,0.3631,0.3295,0.3185,0.3488,0.3462,0.3453,0.3444,0.2908,0.2901,0.2896,0.2892,0,0.2383,0.2413,0.2454,0.2519,0.2567,0.262,0.2702,0.2743,0.2891,0.2974,0.3076,0.3159,0.3288,0.3193,0.3254,0.3226,0.3268,0.3184,0.3613,0.2975,0.289,0.2862,0.2873,0.2844,0.2849,0.2852,0.2855,0.2857,0.2344,0.2349,0.2408,0.2439,0.2488,0.2512,0.2512,0.2598,0.2653,0.2726,0.2877,0.2893,0.2954,0.2895,0.2828,0.28,0.3007,0.2866,0.2881,0.2902,0.2818,0.2733,0.264,0.2643,0.2646,0.2649,0.2651,0,0.2275,0.229,0.2328,0.2343,0.2335,0.2413,0.244,0.2405,0.2376,0.2496,0.2541,0.2385,0.2337,0.2418,0.2291,0.2289,0.2252,0.2199,0.2126,0.2176,0.222,0.2099,0.1732,0.1729,0.1726,0.1723,0,0,0.2245,0.2227,0.2229,0.2171,0.2188,0.2137,0.2117,0.2079,0.2099,0.2056,0.2058,0.2247,0.2339,0.2007,0.1968,0.1822,0.1979,0.1753,0.2497,0.2461,0.25,0.2619,0.2491,0,0,0,0,0]},{"header":{"parameterUnit":"m.s-1","parameterCategory":2,"la1":30.2991,"la2":30.254,"lo1":-89.0895,"lo2":-89.0444,"dy":0.0017,"dx":0.0017,"nx":28,"ny":28,"refTime":"2023-09-07T21:00:00:Z","depth":"2","parameterNumber":3,"parameterNumberName":"V-component_of_CURRENTS"},"data":[0,0,0,0,0,0,0,0,0,0,0,0,0,0,0,0,0,0,0,0,0,0,0,0,0,0,0,0,0,0,0,0,0,0,0,0,0,0,0,0,0,0,0,0,0,0,0,0,0,0,0,0,0,0,0,0,0,0,0.017,0.0169,0,0.012,0.0119,0.0119,0.0087,0.0087,0.0087,0.0087,0.004,0.0039,0.0038,0,0,0,0,0,0,0,0,0,0,0,0,0,0.0207,0.0207,0.017,0.0169,0.0169,0.012,0.0119,0.0118,0.0087,0.0087,0.0087,0.0087,0.004,0.0039,0.0037,0,0,0,0,0,0,0,0,0,0,0,0,0,0.0176,0.0207,0.017,0.0148,0.0146,0.012,0.0119,0.0118,0.0087,0.0087,0.0087,0.0087,0.0041,0.0039,0.0037,0.0027,0,0,0.0032,0.0031,0,0,0,0,0,0,0,0,0.0178,0.0175,0.0152,0.015,0.0147,0.0111,0.0115,0.0088,0.0087,0.0108,0.0087,0.0087,0.0065,0.0061,0.005,0.0025,0.0023,0.0032,0.003,0.003,0.0029,0,0,0,0,0,0,0,0.018,0.0176,0.0148,0.0152,0.0149,0.0131,0.0127,0.011,0.0086,0.0106,0.0104,0.0101,0.0064,0.0052,0.0048,0.0022,0.0032,0.003,0.0029,0.0028,-0.0021,-0.0022,0,0,0,0,0,0,0.0191,0.0179,0.015,0.0147,0.0165,0.0131,0.0126,0.0121,0.0086,0.0081,0.0101,0.01,0.0055,0.0051,0.0047,0.005,0.003,0.0028,0.0027,-0.0021,-0.0021,-0.0022,0,0,0,0,0,0,0.0192,0.0189,0.0152,0.0163,0.0157,0.013,0.0126,0.0121,0.0112,0.0083,0.0078,0.0099,0.0055,0.0049,0.0037,0.0047,0.0027,0.0025,-0.0021,-0.0021,-0.0021,0.0045,0,0,0,0,0,0,0.0193,0.019,0.0188,0.0164,0.0157,0.0148,0.0126,0.012,0.0111,0.0109,0.0079,0.0074,0.0054,0.004,0.0036,0.0044,0.0024,-0.0021,-0.0021,-0.0021,0.0043,0.0047,0.005,0,0,0,0,0,0.0195,0.02,0.0188,0.0185,0.0157,0.0148,0.0143,0.0123,0.0111,0.0113,0.0091,0.0075,0.0034,0.0039,0.0033,0.0042,-0.002,-0.0021,-0.0021,0.0041,0.0046,0.005,0,0,0,0,0,0,0.0217,0.0196,0.0183,0.0181,0.017,0.0144,0.0144,0.0128,0.011,0.0106,0.0078,0.0072,0.0061,0.0039,0.0046,0.0023,0.0002,0.0,0.0051,0.0056,0.0059,0.0086,0.0023,0,0,0,0,0,0.0221,0.0217,0.0197,0.0196,0.0194,0.0168,0.0161,0.0146,0.0129,0.012,0.0097,0.0071,0.0053,0.0047,0.0022,0.0017,-0.0003,0.0015,0.0018,0.0022,0.0038,0.001,0.0013,-0.0023,-0.0023,-0.0023,0,0,0.0228,0.0217,0.0214,0.02,0.0189,0.0194,0.0164,0.0159,0.0168,0.0118,0.012,0.0082,0.0052,0.0043,0.0036,0.003,0.002,0.0021,0.0025,0.0039,0.001,0.0014,0.0017,-0.0024,-0.0024,-0.0023,0,0,0.0251,0.0235,0.0243,0.0239,0.0226,0.0212,0.0215,0.019,0.0187,0.0178,0.0144,0.012,0.0087,0.0073,0.0061,0.007,0.0036,0.005,0.0099,0.0072,0.0075,0.0078,0.0058,0.0058,0.0058,0.0058,0.0058,0,0.0263,0.0271,0.0246,0.0257,0.0262,0.0227,0.0245,0.0238,0.0211,0.0214,0.0188,0.0138,0.0108,0.011,0.0106,0.0083,0.0058,0.009,0.0079,0.0081,0.0083,0.0062,0.0061,0.0061,0.0061,0.006,0.006,0,0.0293,0.0303,0.0312,0.0315,0.0313,0.0324,0.0313,0.0314,0.0295,0.0276,0.0265,0.0217,0.0192,0.0169,0.0141,0.0138,0.0113,0.0085,0.0076,0.0091,0.0067,0.0065,0.0065,0.0064,0.0063,0.0063,0,0,0.0319,0.0332,0.0337,0.0358,0.0348,0.0357,0.0377,0.0385,0.0409,0.0363,0.0386,0.0331,0.0291,0.0274,0.023,0.0204,0.0186,0.0151,0.0148,0.0146,0.0126,0.0099,0.0094,0.015,0.015,0.015,0.0105,0,0.0356,0.0397,0.0389,0.0435,0.0459,0.0446,0.0476,0.0474,0.0459,0.0469,0.042,0.0412,0.0338,0.0327,0.0287,0.021,0.0184,0.0201,0.0099,0.0097,0.0082,0.0092,0.0119,0.008,0.0103,0.0103,0.0103,0,0.0394,0.0418,0.0468,0.0516,0.0528,0.0549,0.059,0.061,0.0608,0.0601,0.0569,0.0519,0.048,0.0414,0.0303,0.0312,0.0229,0.0165,0.0161,0.0116,0.0067,0.0066,0.0076,0.01,0.01,0.01,0.01,0,0.0435,0.0481,0.0527,0.054,0.0578,0.0611,0.0636,0.0645,0.0687,0.0682,0.0697,0.0624,0.0605,0.0487,0.0339,0.032,0.0215,0.0173,0.0076,0.0073,0.0069,0.0065,0.0105,0.0105,0.0105,0.0106,0.0106,0,0.0484,0.0526,0.0556,0.0583,0.0664,0.0664,0.0742,0.0762,0.0794,0.0852,0.0767,0.0792,0.0619,0.053,0.0382,0.0227,0.0245,0.0095,0.0062,0.009,0.009,0.0082,0.008,0.0104,0.0104,0.0105,0.0105,0,0.0526,0.0541,0.0605,0.0658,0.0686,0.0742,0.083,0.0884,0.0902,0.0977,0.0985,0.0921,0.0805,0.0623,0.0441,0.0298,0.0145,0.0087,0.0133,0.0107,0.0012,0.0014,-0.002,-0.0021,-0.0022,-0.0023,-0.0024,0,0.0551,0.0586,0.0662,0.0713,0.0745,0.0827,0.0893,0.0941,0.1007,0.1062,0.1111,0.1025,0.0973,0.069,0.0436,0.0188,0.0148,0.0045,0.0012,0.0029,0.0001,0.0004,0.0007,0.0031,0.0031,0.003,0.003,0,0.0604,0.0628,0.068,0.0782,0.0861,0.0956,0.1054,0.1127,0.1193,0.125,0.1303,0.1263,0.101,0.0753,0.041,0.0246,0.0082,0.0033,0.0046,0.0055,0.0072,0.0046,0.0048,0.0029,0.0029,0.0029,0.0029,0.0029,0.0644,0.0692,0.076,0.0861,0.0954,0.1074,0.1159,0.126,0.1373,0.1459,0.1431,0.1371,0.1098,0.0652,0.0364,0.0067,0.0081,-0.0034,-0.0031,-0.0029,-0.0018,-0.0004,-0.006,-0.006,-0.006,-0.006,-0.0061,0,0.0692,0.0747,0.0838,0.0956,0.1058,0.1104,0.1258,0.1336,0.1464,0.153,0.1554,0.129,0.1005,0.0688,0.0248,-0.0017,-0.0027,-0.0102,-0.006,-0.0056,-0.0053,-0.0042,-0.0091,-0.0092,-0.0093,-0.0094,0,0,0.072,0.0804,0.0847,0.1015,0.1104,0.1244,0.133,0.1444,0.152,0.1566,0.1536,0.147,0.1093,0.0766,0.0411,0.0153,0.0112,0.0109,0.0165,0.0262,0.0268,0.002,0.0045,0,0,0,0,0]}],[{"header":{"parameterUnit":"m.s-1","parameterCategory":2,"la1":30.2991,"la2":30.254,"lo1":-89.0895,"lo2":-89.0444,"dy":0.0017,"dx":0.0017,"nx":28,"ny":28,"refTime":"2023-09-07T21:00:00:Z","depth":"4","parameterNumber":2,"parameterNumberName":"U-component_of_CURRENTS"},"data":[0,0,0,0,0,0,0,0,0,0,0,0,0,0,0,0,0,0,0,0,0,0,0,0,0,0,0,0,0,0,0,0,0,0,0,0,0,0,0,0,0,0,0,0,0,0,0,0,0,0,0,0,0,0,0,0,0,0,0.1442,0.1443,0,0.149,0.1491,0.1491,0.1537,0.1538,0.1539,0.1539,0.1578,0.1579,0.1579,0,0,0,0,0,0,0,0,0,0,0,0,0,0.1383,0.1383,0.1442,0.1443,0.1444,0.149,0.1491,0.1491,0.1537,0.1538,0.1539,0.154,0.1578,0.1579,0.1579,0,0,0,0,0,0,0,0,0,0,0,0,0,0.1415,0.1383,0.1442,0.1474,0.1477,0.149,0.1491,0.1491,0.1537,0.1538,0.1539,0.154,0.1578,0.1579,0.1579,0.1559,0,0,0.158,0.1581,0,0,0,0,0,0,0,0,0.1413,0.1417,0.1468,0.1471,0.1475,0.1511,0.1484,0.1514,0.1536,0.1512,0.1539,0.1541,0.1555,0.1558,0.1561,0.1561,0.1563,0.1581,0.1581,0.1581,0.1581,0,0,0,0,0,0,0,0.1411,0.1415,0.1459,0.1469,0.1473,0.1483,0.1489,0.149,0.1525,0.1514,0.1518,0.1526,0.1557,0.1561,0.1563,0.1563,0.1581,0.1581,0.1581,0.1581,0.164,0.1641,0,0,0,0,0,0,0.1408,0.1413,0.1458,0.1461,0.1449,0.1483,0.149,0.1496,0.1525,0.1531,0.1525,0.1528,0.1559,0.1562,0.1564,0.1611,0.1581,0.1581,0.1582,0.1638,0.164,0.1641,0,0,0,0,0,0,0.1407,0.1412,0.1456,0.144,0.1446,0.1483,0.149,0.1497,0.1529,0.1534,0.154,0.1554,0.156,0.1564,0.1592,0.1611,0.1582,0.1582,0.1637,0.1639,0.1641,0.1661,0,0,0,0,0,0,0.1405,0.1411,0.1432,0.144,0.1447,0.1478,0.149,0.1497,0.1531,0.1536,0.156,0.1563,0.1562,0.1591,0.1592,0.1611,0.1583,0.1635,0.1638,0.164,0.1659,0.1664,0.1667,0,0,0,0,0,0.1402,0.1422,0.1433,0.1439,0.1469,0.1479,0.1484,0.1512,0.1532,0.1546,0.1568,0.1564,0.1607,0.1592,0.1593,0.1613,0.1634,0.1637,0.164,0.1657,0.1663,0.1667,0,0,0,0,0,0,0.1409,0.1429,0.1441,0.1467,0.148,0.1488,0.1514,0.1526,0.1554,0.1573,0.1574,0.1578,0.1616,0.1611,0.1595,0.1639,0.1622,0.1626,0.1635,0.1641,0.1645,0.1672,0.1583,0,0,0,0,0,0.1418,0.1442,0.1451,0.1476,0.1486,0.1504,0.152,0.1536,0.1554,0.1569,0.159,0.1611,0.1623,0.163,0.1648,0.166,0.168,0.1677,0.1681,0.1685,0.1709,0.1762,0.1774,0.1651,0.1651,0.165,0,0,0.1429,0.1444,0.1459,0.148,0.1497,0.1511,0.1517,0.1548,0.1568,0.1567,0.1619,0.1634,0.1634,0.1659,0.1675,0.1658,0.1726,0.1688,0.1691,0.1714,0.1766,0.1778,0.1789,0.1652,0.1652,0.1652,0,0,0.1445,0.1474,0.1493,0.1504,0.1533,0.1542,0.1554,0.1581,0.1607,0.1642,0.1653,0.1684,0.1703,0.1709,0.1708,0.1746,0.1756,0.1752,0.1783,0.1833,0.1844,0.1854,0.1874,0.1885,0.1743,0.1743,0.1743,0,0.146,0.1479,0.15,0.1514,0.153,0.1556,0.1571,0.1594,0.1632,0.1656,0.1669,0.1728,0.1728,0.1748,0.1765,0.1756,0.1783,0.1756,0.1839,0.1849,0.1859,0.1877,0.189,0.1744,0.1744,0.1744,0.1744,0,0.1473,0.15,0.1513,0.1539,0.1558,0.1579,0.1604,0.1646,0.1684,0.1704,0.1764,0.1777,0.1813,0.181,0.1797,0.1858,0.1853,0.1845,0.1824,0.1873,0.1888,0.1901,0.1746,0.1745,0.1745,0.1745,0,0,0.1472,0.1514,0.1522,0.1536,0.1575,0.1585,0.1635,0.1672,0.172,0.1765,0.1822,0.1844,0.1875,0.1879,0.1875,0.191,0.1983,0.1913,0.1915,0.1929,0.2089,0.1972,0.1974,0.1998,0.2001,0.2003,0.2064,0,0.1478,0.1506,0.1528,0.1559,0.1573,0.1615,0.1652,0.1697,0.1755,0.1824,0.185,0.191,0.1889,0.1927,0.1957,0.1998,0.2023,0.1967,0.2044,0.2046,0.1934,0.1987,0.2012,0.2074,0.2076,0.2079,0.208,0,0.1474,0.1496,0.1528,0.1569,0.1581,0.1611,0.1693,0.1733,0.1823,0.1875,0.1944,0.1982,0.2047,0.2029,0.2115,0.2088,0.2099,0.2113,0.2116,0.2015,0.1954,0.2022,0.2103,0.2101,0.2099,0.2098,0.2096,0,0.1446,0.149,0.1519,0.1532,0.1587,0.1626,0.167,0.1758,0.1809,0.1935,0.2002,0.2073,0.2142,0.2181,0.2214,0.2186,0.2307,0.2261,0.2154,0.2145,0.2221,0.2211,0.2322,0.2321,0.2321,0.2321,0.2321,0,0.1418,0.1442,0.1518,0.1528,0.1576,0.1624,0.1704,0.1767,0.1874,0.1933,0.2036,0.2101,0.2196,0.2263,0.2262,0.2256,0.2346,0.2181,0.2165,0.2224,0.2213,0.2229,0.2217,0.2323,0.2323,0.2322,0.2322,0,0.1365,0.1416,0.1452,0.1529,0.1562,0.1601,0.1711,0.1763,0.1887,0.1981,0.203,0.2164,0.2253,0.2312,0.239,0.2313,0.232,0.2286,0.2354,0.2337,0.2104,0.2093,0.2167,0.2163,0.216,0.2158,0.2156,0,0.1334,0.1351,0.1447,0.1479,0.1519,0.1598,0.1644,0.176,0.1818,0.199,0.2017,0.2164,0.2231,0.2248,0.2319,0.2322,0.2285,0.2267,0.2173,0.2117,0.2095,0.2088,0.2081,0.2152,0.2151,0.215,0.2149,0,0.1273,0.1326,0.1361,0.143,0.1487,0.1532,0.1614,0.1644,0.1773,0.1907,0.1969,0.2018,0.2115,0.2168,0.2205,0.2191,0.2272,0.2236,0.224,0.2151,0.21,0.2079,0.2075,0.214,0.2141,0.2142,0.2142,0,0.1243,0.1252,0.1317,0.136,0.1427,0.1432,0.1489,0.1548,0.1614,0.1794,0.1814,0.1957,0.2092,0.2101,0.2128,0.2126,0.2073,0.1984,0.2,0.2012,0.1934,0.1844,0.1809,0,0,0,0,0,0.1199,0.1195,0.1235,0.1268,0.1326,0.1359,0.1447,0.1507,0.164,0.1636,0.1717,0.1791,0.185,0.1934,0.1898,0.205,0.2077,0.1998,0.1981,0.2085,0.2096,0.2019,0,0,0,0,0,0,0.1165,0.1202,0.1203,0.1182,0.1188,0.1227,0.1274,0.1359,0.1373,0.1523,0.1572,0.1688,0.1782,0.1856,0.1868,0.189,0.1841,0.2092,0.2087,0.2078,0.2089,0.2098,0.2022,0,0,0,0,0]},{"header":{"parameterUnit":"m.s-1","parameterCategory":2,"la1":30.2991,"la2":30.254,"lo1":-89.0895,"lo2":-89.0444,"dy":0.0017,"dx":0.0017,"nx":28,"ny":28,"refTime":"2023-09-07T21:00:00:Z","depth":"4","parameterNumber":3,"parameterNumberName":"V-component_of_CURRENTS"},"data":[0,0,0,0,0,0,0,0,0,0,0,0,0,0,0,0,0,0,0,0,0,0,0,0,0,0,0,0,0,0,0,0,0,0,0,0,0,0,0,0,0,0,0,0,0,0,0,0,0,0,0,0,0,0,0,0,0,0,0.0222,0.0222,0,0.0203,0.0203,0.0203,0.0188,0.0188,0.0188,0.0188,0.0176,0.0175,0.0175,0,0,0,0,0,0,0,0,0,0,0,0,0,0.0233,0.0233,0.0222,0.0222,0.0222,0.0203,0.0203,0.0203,0.0188,0.0188,0.0188,0.0188,0.0176,0.0175,0.0175,0,0,0,0,0,0,0,0,0,0,0,0,0,0.0222,0.0233,0.0222,0.0213,0.0212,0.0203,0.0203,0.0203,0.0188,0.0188,0.0188,0.0188,0.0176,0.0175,0.0175,0.0175,0,0,0.0174,0.0174,0,0,0,0,0,0,0,0,0.0223,0.0222,0.0214,0.0213,0.0212,0.0199,0.0202,0.0194,0.0188,0.0197,0.0188,0.0188,0.0184,0.0183,0.0179,0.0174,0.0173,0.0174,0.0173,0.0173,0.0173,0,0,0,0,0,0,0,0.0224,0.0222,0.0214,0.0214,0.0213,0.0206,0.0204,0.0201,0.0191,0.0196,0.0195,0.0194,0.0184,0.0179,0.0179,0.0173,0.0174,0.0173,0.0173,0.0173,0.0177,0.0177,0,0,0,0,0,0,0.0228,0.0223,0.0214,0.0213,0.0218,0.0206,0.0204,0.0203,0.0191,0.0189,0.0194,0.0193,0.018,0.0179,0.0178,0.0203,0.0173,0.0173,0.0173,0.0176,0.0177,0.0177,0,0,0,0,0,0,0.0228,0.0228,0.0215,0.0218,0.0216,0.0206,0.0204,0.0202,0.0202,0.019,0.0188,0.0197,0.018,0.0179,0.0184,0.0202,0.0173,0.0172,0.0176,0.0177,0.0177,0.0236,0,0,0,0,0,0,0.0229,0.0228,0.0232,0.0219,0.0216,0.0218,0.0205,0.0202,0.0202,0.0201,0.0191,0.0189,0.018,0.0185,0.0183,0.02,0.0172,0.0176,0.0176,0.0177,0.0234,0.0239,0.0243,0,0,0,0,0,0.0229,0.0235,0.0232,0.0231,0.0221,0.0218,0.0217,0.0208,0.0202,0.0206,0.0201,0.019,0.0187,0.0185,0.0183,0.0201,0.0175,0.0176,0.0177,0.0232,0.0238,0.0243,0,0,0,0,0,0,0.0241,0.0233,0.023,0.0233,0.023,0.0216,0.022,0.0212,0.021,0.0211,0.0197,0.0196,0.0206,0.0192,0.0189,0.0201,0.0178,0.0179,0.0221,0.0226,0.0231,0.0236,0.0172,0,0,0,0,0,0.0246,0.0249,0.024,0.0244,0.0244,0.0233,0.0232,0.0226,0.0221,0.0219,0.0214,0.0207,0.0207,0.0208,0.0203,0.0212,0.018,0.022,0.0224,0.0228,0.0231,0.0195,0.0197,0.018,0.018,0.018,0,0,0.0252,0.0249,0.0251,0.0248,0.0244,0.0253,0.0232,0.0234,0.0245,0.0219,0.0234,0.0223,0.0212,0.0223,0.0226,0.0216,0.0215,0.0229,0.0233,0.0233,0.0196,0.0198,0.0199,0.018,0.018,0.018,0,0,0.0268,0.0264,0.0273,0.0276,0.0275,0.0269,0.0272,0.0264,0.0266,0.0273,0.0261,0.0261,0.0257,0.0257,0.0255,0.0279,0.024,0.0276,0.0308,0.0274,0.0275,0.0275,0.0234,0.023,0.028,0.028,0.028,0,0.0278,0.0289,0.0277,0.029,0.03,0.028,0.0298,0.0296,0.0292,0.03,0.0285,0.0283,0.0274,0.0291,0.0301,0.0292,0.0258,0.0292,0.028,0.028,0.0279,0.0237,0.0232,0.0283,0.0282,0.0282,0.0282,0,0.0301,0.0315,0.0323,0.0335,0.0342,0.0354,0.0352,0.0359,0.0354,0.035,0.0361,0.0343,0.0342,0.0339,0.0329,0.0332,0.0304,0.0289,0.0268,0.0285,0.0239,0.0233,0.0287,0.0286,0.0285,0.0284,0,0,0.0312,0.0336,0.034,0.0363,0.037,0.0381,0.0401,0.0415,0.0432,0.0419,0.0437,0.0431,0.0414,0.041,0.0394,0.0366,0.0337,0.0331,0.0328,0.0294,0.0251,0.0228,0.0219,0.0317,0.0316,0.0316,0.0219,0,0.0338,0.0376,0.0381,0.0425,0.0447,0.0447,0.0472,0.0482,0.0478,0.0489,0.0467,0.0476,0.0444,0.0447,0.0415,0.0358,0.0324,0.0364,0.0236,0.0232,0.0213,0.0212,0.0314,0.0214,0.0213,0.0212,0.0211,0,0.0362,0.0387,0.0434,0.0483,0.0493,0.0518,0.0554,0.0574,0.0578,0.0576,0.0567,0.0542,0.0518,0.0482,0.0383,0.0407,0.0336,0.0281,0.0276,0.023,0.0199,0.0193,0.0199,0.02,0.0201,0.0202,0.0203,0,0.0381,0.0429,0.0472,0.0487,0.053,0.056,0.0587,0.0604,0.0636,0.0633,0.0641,0.0595,0.0579,0.0483,0.0372,0.0374,0.0244,0.0232,0.0142,0.0139,0.0163,0.0163,0.0156,0.0156,0.0156,0.0157,0.0157,0,0.0407,0.0444,0.0488,0.0513,0.0578,0.0597,0.066,0.0675,0.0702,0.0738,0.0693,0.0693,0.0576,0.0491,0.038,0.0239,0.0247,0.0144,0.0114,0.0189,0.0194,0.0158,0.0159,0.0153,0.0154,0.0155,0.0155,0,0.0421,0.0447,0.0503,0.0561,0.059,0.0638,0.0722,0.0761,0.0777,0.0817,0.0822,0.0765,0.0647,0.0514,0.0352,0.0258,0.0122,0.007,0.0155,0.0132,0.0035,0.0041,-0.004,-0.0042,-0.0043,-0.0044,-0.0045,0,0.0429,0.0459,0.054,0.0584,0.0617,0.0693,0.075,0.0799,0.0841,0.0856,0.0874,0.0785,0.0723,0.0477,0.0329,0.0106,0.0078,0.0004,0.0025,0.0037,0.0016,0.0024,0.0031,-0.0048,-0.0048,-0.0048,-0.0049,0,0.0448,0.0477,0.0524,0.0613,0.0684,0.0767,0.0848,0.0883,0.093,0.0944,0.0911,0.0794,0.0658,0.0472,0.0298,0.0141,0.005,-0.001,-0.0008,0.0011,0.0027,0.0009,0.0018,-0.0053,-0.0053,-0.0052,-0.0052,0,0.0463,0.0497,0.0561,0.0641,0.0731,0.0812,0.0857,0.0905,0.0949,0.096,0.0941,0.0802,0.0726,0.0489,0.0327,0.0169,0.0131,0.0083,0.0079,0.0083,0.0147,0.0188,0.0129,0,0,0,0,0,0.0473,0.0514,0.0587,0.0674,0.076,0.0818,0.091,0.0945,0.0985,0.0967,0.0959,0.0831,0.0598,0.05,0.0337,0.0292,0.0097,0.0094,0.0038,-0.0079,-0.0074,-0.0021,0,0,0,0,0,0,0.0481,0.0545,0.0581,0.0686,0.0747,0.0851,0.0911,0.0942,0.0935,0.0944,0.0824,0.0779,0.0552,0.0685,0.0328,0.0282,0.0221,-0.0008,-0.0012,-0.0082,-0.0077,-0.0073,-0.0017,0,0,0,0,0]}]]